Back to catalog

SL-16 DEB

AliveLEO
NORAD 19128·DEBRIS·🇷🇺 Russia

Launched May 15, 1988 from Baikonur Cosmodrome

Loading…

Next Passes (next 24 hours)

TLE

FreshSource: Space-Track

Epoch: Sep 13, 2026, 20:15 UTC

1 19128U 88039F   26256.84420486  .00000045  00000-0  81896-4 0  9991
2 19128  70.9832  45.4750 0201573 131.5194  19.4788 13.72886551919247

Track SL-16 DEB in real time with AllMySat

Download on the App Store